Location: Newark
(40.3500°N, 15.2333°E)
Time: 21:33:50
(UTC+00:00)

NOAA 19 - Pass Details

Date: 24 February 2020
Orbit: 842 x 860 km, 99.2° (Epoch: 09 April)

Event Time Altitude Azimuth Distance (km) Brightness Sun altitude
Rises 04:57:38 0° 14° (NNE) 3,422 8.5 -9.0°
Reaches altitude 10° 05:00:00 10° 14° (NNE) 2,485 7.8 -8.6°
Maximum altitude 05:05:32 88° 105° (ESE) 859 5.3 -7.5°
Drops below altitude 10° 05:11:03 10° 195° (SSW) 2,480 7.6 -6.5°
Sets 05:13:25 0° 196° (SSW) 3,415 8.3 -6.0°
